Flag for Namibia Weather past 2 weeks in Swakopmund, Namibia

Now
64 °F

Sunny.


Feels Like: 64 °F
Forecast: 59 / 69 °F
Wind: 14 mph from West

Location: Walvis Bay

Current Time: Apr 27, 2015 at 5:12:54 PM

Latest Report: Apr 27, 2015 at 4:00 PM


Visibility: 10 mi

Pressure: 29.95 "Hg

Humidity: 60%

Dew point: 50 °F

Location of SwakopmundLocation

Historic Weather in Swakopmund — Graph

°F

Swakopmund temperature yesterday

Maximum temperature yesterday: 73 °F (at 1:00 PM)
Minimum temperature yesterday: 52 °F (at 5:00 AM)
Average temperature yesterday: 59 °F

Past Weeks' High & Low Weather Summary

 TemperatureHumidityPressure
High86 °F (Apr 24, 2:00 PM)100% (Apr 21, 3:00 AM)30.09 "Hg (Apr 21, 3:00 AM)
Low48 °F (Apr 18, 12:00 AM)19% (Apr 25, 5:00 PM)29.89 "Hg (Apr 15, 3:00 PM)
Average60 °F74%30.00 "Hg
* Reported Apr 12 3:00 PM — Apr 27 3:00 PM, Swakopmund, Weather by CustomWeather, © 2015

Note: Actual official high and low records may vary slightly from our data, if they occured in-between our weather recording intervals... More about our weather records

Advertising

Swakopmund weather history for previous 24 hours

 ConditionsComfort  
Time TempWeatherWind HumidityBarometerVisibility
3:00 PM
Mon, Apr 27
66 °FSunny.12 mph56%29.95 "Hg10 mi
2:00 PM68 °FSunny.13 mph53%29.95 "Hg10 mi
1:00 PM70 °FSunny.7 mph46%29.98 "Hg10 mi
12:00 PM66 °FSunny.6 mph56%30.01 "Hg10 mi
11:00 AM63 °FSunny.3 mph64%30.04 "Hg10 mi
9:00 AM52 °FFog.2 mph94%30.07 "Hg1 mi
8:00 AM52 °FFog.3 mph94%30.07 "Hg1 mi
7:00 AM52 °FFog.3 mph94%30.07 "Hg1 mi
6:00 AM50 °FFog.2 mph94%30.04 "Hg1 mi
4:00 AM50 °FCool.5 mph94%30.01 "HgN/A
3:00 AM50 °FCool.5 mph94%30.04 "HgN/A
2:00 AM52 °FCool.6 mph94%30.04 "HgN/A
1:00 AM52 °FCool.7 mph88%30.04 "HgN/A
12:00 AM52 °FCool.6 mph88%30.07 "HgN/A
11:00 PM
Sun, Apr 26
52 °FCool.5 mph94%30.07 "HgN/A
10:00 PM54 °FCool.1 mph88%30.07 "HgN/A
9:00 PM54 °FCool.3 mph88%30.07 "HgN/A
8:00 PM55 °FCool.8 mph82%30.04 "HgN/A
7:00 PM57 °FClear.6 mph82%30.01 "Hg10 mi
6:00 PM59 °FCool.9 mph77%30.01 "HgN/A
5:00 PM66 °FMild.10 mph60%30.01 "HgN/A
Weather by CustomWeather, © 2015

See weather overviewHow to use our weather pages